Aurora — ZCDW9 — position and weather

sailwx.info

Track history (hours):
 
Tides and Currents Weather Stations Pressure Air Temp Water Temp Dewpoint Dewpoint Depression Visibility Wind Speed Wind Dir Waves Ship Positions

Aurora (Bermuda)

Last reported at 2018-Feb-25 07:26 UTC. Time now 2018-Feb-25 07:41 UTC.
Position N 14°36' W 061°04'.

Length 271 m; draft 8.3 m.

Type: Ship. MMSI: 310555970.

Date/timePositionNaut miles runAvg speedWind from/ knotsBaromVisibWave heightAir tempDewpointWater temp
2018-Feb-25 07:26N 14°36' W 061°04'0 0.0
2018-Feb-25 06:59N 14°36' W 061°04'0 0.0
2018-Feb-25 06:26N 14°36' W 061°04'0 0.0
2018-Feb-25 05:59N 14°36' W 061°04'0 0.0
2018-Feb-25 05:14N 14°36' W 061°04'0 0.0
2018-Feb-25 04:53N 14°36' W 061°04'0 0.0
2018-Feb-25 04:20N 14°36' W 061°04'0 0.0
2018-Feb-25 03:56N 14°36' W 061°04'0 0.0
2018-Feb-25 03:23N 14°36' W 061°04'0 0.0
2018-Feb-25 02:59N 14°36' W 061°04'0 0.0
2018-Feb-25 02:29N 14°36' W 061°04'0 0.0
2018-Feb-25 01:53N 14°36' W 061°04'0 0.0
2018-Feb-25 01:29N 14°36' W 061°04'0 0.0
2018-Feb-25 00:59N 14°36' W 061°04'0 0.0
2018-Feb-25 00:26N 14°36' W 061°04'0 0.0
2018-Feb-24 23:56N 14°36' W 061°04'0 0.0
2018-Feb-24 23:17N 14°36' W 061°04'0 0.0
2018-Feb-24 22:53N 14°36' W 061°04'0 0.0
2018-Feb-24 22:26N 14°36' W 061°04'0 0.0
2018-Feb-24 21:56N 14°36' W 061°04'0 0.0
2018-Feb-24 21:29N 14°36' W 061°04'0 0.0
2018-Feb-24 20:50N 14°36' W 061°04'0 0.0
2018-Feb-24 20:20N 14°36' W 061°04'0 0.0
2018-Feb-24 19:56N 14°36' W 061°04'0 0.0
2018-Feb-24 19:29N 14°36' W 061°04'0 0.0
2018-Feb-24 18:35N 14°36' W 061°04'0 0.0
2018-Feb-24 18:20N 14°36' W 061°04'0 0.0
2018-Feb-24 17:47N 14°36' W 061°04'0 0.0
2018-Feb-24 17:29N 14°36' W 061°04'0 0.0
2018-Feb-24 16:59N 14°36' W 061°04'0 0.0
2018-Feb-24 16:29N 14°36' W 061°04'0 0.0
2018-Feb-24 15:59N 14°36' W 061°04'0 0.0
2018-Feb-24 14:47N 14°36' W 061°04'0 0.0
2018-Feb-24 12:08N 14°36' W 061°04'0 0.0
2018-Feb-24 11:59N 14°36' W 061°04'0 0.0
2018-Feb-24 11:23N 14°36' W 061°04'0 0.0
2018-Feb-24 10:59N 14°36' W 061°04'0 0.0
2018-Feb-24 10:30N 14°36' W 061°04'2 3.3
2018-Feb-24 10:01N 14°35' W 061°06'610.8
2018-Feb-24 09:29N 14°33' W 061°11'612.4
2018-Feb-24 09:00N 14°31' W 061°17'613.0
2018-Feb-24 08:30N 14°30' W 061°24'8 1.8
2018-Feb-24 04:07N 14°24' W 061°19'0 1.9
2018-Feb-24 03:56N 14°24' W 061°18'5 6.3
2018-Feb-24 03:10N 14°20' W 061°19'3 7.2
2018-Feb-24 02:47N 14°17' W 061°20'  
2018-Feb-21 22:00N 11°06' W 060°36'137 5.9 150 / 201015.0 5.4 25.922.426.0
2018-Feb-20 23:00N 11°24' W 062°54'14712.3 180 / 241015.210.8 25.223.324.0
2018-Feb-20 11:00N 11°24' W 065°24'16712.9 200 / 191015.610.8 24.120.826.0
2018-Feb-19 22:00N 11°54' W 068°12'208 4.4 230 / 291014.310.8 26.622.726.0
2018-Feb-17 23:00N 12°30' W 071°42'21112.2 180 / 281013.710.8 24.423.021.0
2018-Feb-17 05:39N 11°16' W 075°04'211.5
2018-Feb-17 05:30N 11°15' W 075°06'611.2
2018-Feb-17 05:00N 11°12' W 075°10'611.0
2018-Feb-17 04:30N 11°09' W 075°15'611.8
2018-Feb-17 03:59N 11°06' W 075°20'612.0
2018-Feb-17 03:30N 11°02' W 075°25'611.9
2018-Feb-17 03:00N 10°58' W 075°29'611.9
2018-Feb-17 02:30N 10°54' W 075°33'712.4
2018-Feb-17 01:58N 10°48' W 075°35'612.9
2018-Feb-17 01:30N 10°42' W 075°36'1223.0
2018-Feb-17 01:00N 10°30' W 075°36'482.1 060 / 311009.310.8 24.922.225.0
2018-Feb-17 00:56N 10°34' W 075°37'612.8
2018-Feb-17 00:29N 10°29' W 075°38'612.7
2018-Feb-16 23:59N 10°22' W 075°37'5 8.2
2018-Feb-16 23:20N 10°20' W 075°32'410.9
2018-Feb-16 23:00N 10°24' W 075°32'1 1.5
2018-Feb-16 22:29N 10°24' W 075°32'0 0.0
2018-Feb-16 21:59N 10°24' W 075°32'0 0.0
2018-Feb-16 21:29N 10°24' W 075°32'0 0.0
2018-Feb-16 20:56N 10°24' W 075°32'0 0.0
2018-Feb-16 20:23N 10°24' W 075°32'0 0.0
2018-Feb-16 19:50N 10°24' W 075°32'0 0.0
2018-Feb-16 19:29N 10°24' W 075°32'0 0.0
2018-Feb-16 18:50N 10°24' W 075°32'0 0.0
2018-Feb-16 18:29N 10°24' W 075°32'0 0.0
2018-Feb-16 17:59N 10°24' W 075°32'0 0.0
2018-Feb-16 17:14N 10°24' W 075°32'0 0.0
2018-Feb-16 16:56N 10°24' W 075°32'0 0.0
2018-Feb-16 16:20N 10°24' W 075°32'0 0.0
2018-Feb-16 15:29N 10°24' W 075°32'0 0.0
2018-Feb-16 14:56N 10°24' W 075°32'0 0.0
2018-Feb-16 14:20N 10°24' W 075°32'0 0.0
2018-Feb-16 13:59N 10°24' W 075°32'1 1.7
2018-Feb-16 13:30N 10°24' W 075°32'10 8.7
2018-Feb-16 12:21N 10°18' W 075°41'718.8
2018-Feb-16 11:58N 10°17' W 075°48'918.2
2018-Feb-16 11:29N 10°16' W 075°57'19416.9
2018-Feb-16 00:00N 09°48' W 079°12'4324.3 120 / 251011.7 26.123.426.0
2018-Feb-15 22:14N 09°31' W 079°52'418.3
2018-Feb-15 22:00N 09°28' W 079°55'612.7
2018-Feb-15 21:30N 09°21' W 079°55'3 6.9
2018-Feb-15 21:00N 09°18' W 079°55'1 2.3
2018-Feb-15 20:30N 09°17' W 079°55'0 0.3
2018-Feb-15 20:00N 09°16' W 079°55'0 0.4
2018-Feb-15 19:30N 09°16' W 079°55'0 0.7
2018-Feb-15 19:00N 09°16' W 079°55'2 3.9
2018-Feb-15 18:30N 09°14' W 079°55'  
Track history (hours):
 
Tides and Currents Weather Stations Pressure Air Temp Water Temp Dewpoint Dewpoint Depression Visibility Wind Speed Wind Dir Waves Ship Positions

Aurora (Bermuda)

Last reported at 2018-Feb-25 07:26 UTC. Time now 2018-Feb-25 07:41 UTC.
Position N 14°36' W 061°04'.

Length 271 m; draft 8.3 m.

Type: Ship. MMSI: 310555970.

Date/timePositionNaut miles runAvg speedWind from/ knotsBaromVisibWave heightAir tempDewpointWater temp
2018-Feb-25 07:26N 14°36' W 061°04'0 0.0
2018-Feb-25 06:59N 14°36' W 061°04'0 0.0
2018-Feb-25 06:26N 14°36' W 061°04'0 0.0
2018-Feb-25 05:59N 14°36' W 061°04'0 0.0
2018-Feb-25 05:14N 14°36' W 061°04'0 0.0
2018-Feb-25 04:53N 14°36' W 061°04'0 0.0
2018-Feb-25 04:20N 14°36' W 061°04'0 0.0
2018-Feb-25 03:56N 14°36' W 061°04'0 0.0
2018-Feb-25 03:23N 14°36' W 061°04'0 0.0
2018-Feb-25 02:59N 14°36' W 061°04'0 0.0
2018-Feb-25 02:29N 14°36' W 061°04'0 0.0
2018-Feb-25 01:53N 14°36' W 061°04'0 0.0
2018-Feb-25 01:29N 14°36' W 061°04'0 0.0
2018-Feb-25 00:59N 14°36' W 061°04'0 0.0
2018-Feb-25 00:26N 14°36' W 061°04'0 0.0
2018-Feb-24 23:56N 14°36' W 061°04'0 0.0
2018-Feb-24 23:17N 14°36' W 061°04'0 0.0
2018-Feb-24 22:53N 14°36' W 061°04'0 0.0
2018-Feb-24 22:26N 14°36' W 061°04'0 0.0
2018-Feb-24 21:56N 14°36' W 061°04'0 0.0
2018-Feb-24 21:29N 14°36' W 061°04'0 0.0
2018-Feb-24 20:50N 14°36' W 061°04'0 0.0
2018-Feb-24 20:20N 14°36' W 061°04'0 0.0
2018-Feb-24 19:56N 14°36' W 061°04'0 0.0
2018-Feb-24 19:29N 14°36' W 061°04'0 0.0
2018-Feb-24 18:35N 14°36' W 061°04'0 0.0
2018-Feb-24 18:20N 14°36' W 061°04'0 0.0
2018-Feb-24 17:47N 14°36' W 061°04'0 0.0
2018-Feb-24 17:29N 14°36' W 061°04'0 0.0
2018-Feb-24 16:59N 14°36' W 061°04'0 0.0
2018-Feb-24 16:29N 14°36' W 061°04'0 0.0
2018-Feb-24 15:59N 14°36' W 061°04'0 0.0
2018-Feb-24 14:47N 14°36' W 061°04'0 0.0
2018-Feb-24 12:08N 14°36' W 061°04'0 0.0
2018-Feb-24 11:59N 14°36' W 061°04'0 0.0
2018-Feb-24 11:23N 14°36' W 061°04'0 0.0
2018-Feb-24 10:59N 14°36' W 061°04'0 0.0
2018-Feb-24 10:30N 14°36' W 061°04'2 3.3
2018-Feb-24 10:01N 14°35' W 061°06'610.8
2018-Feb-24 09:29N 14°33' W 061°11'612.4
2018-Feb-24 09:00N 14°31' W 061°17'613.0
2018-Feb-24 08:30N 14°30' W 061°24'8 1.8
2018-Feb-24 04:07N 14°24' W 061°19'0 1.9
2018-Feb-24 03:56N 14°24' W 061°18'5 6.3
2018-Feb-24 03:10N 14°20' W 061°19'3 7.2
2018-Feb-24 02:47N 14°17' W 061°20'  
2018-Feb-21 22:00N 11°06' W 060°36'137 5.9 150 / 201015.0 5.4 25.922.426.0
2018-Feb-20 23:00N 11°24' W 062°54'14712.3 180 / 241015.210.8 25.223.324.0
2018-Feb-20 11:00N 11°24' W 065°24'16712.9 200 / 191015.610.8 24.120.826.0
2018-Feb-19 22:00N 11°54' W 068°12'208 4.4 230 / 291014.310.8 26.622.726.0
2018-Feb-17 23:00N 12°30' W 071°42'21112.2 180 / 281013.710.8 24.423.021.0
2018-Feb-17 05:39N 11°16' W 075°04'211.5
2018-Feb-17 05:30N 11°15' W 075°06'611.2
2018-Feb-17 05:00N 11°12' W 075°10'611.0
2018-Feb-17 04:30N 11°09' W 075°15'611.8
2018-Feb-17 03:59N 11°06' W 075°20'612.0
2018-Feb-17 03:30N 11°02' W 075°25'611.9
2018-Feb-17 03:00N 10°58' W 075°29'611.9
2018-Feb-17 02:30N 10°54' W 075°33'712.4
2018-Feb-17 01:58N 10°48' W 075°35'612.9
2018-Feb-17 01:30N 10°42' W 075°36'1223.0
2018-Feb-17 01:00N 10°30' W 075°36'482.1 060 / 311009.310.8 24.922.225.0
2018-Feb-17 00:56N 10°34' W 075°37'612.8
2018-Feb-17 00:29N 10°29' W 075°38'612.7
2018-Feb-16 23:59N 10°22' W 075°37'5 8.2
2018-Feb-16 23:20N 10°20' W 075°32'410.9
2018-Feb-16 23:00N 10°24' W 075°32'1 1.5
2018-Feb-16 22:29N 10°24' W 075°32'0 0.0
2018-Feb-16 21:59N 10°24' W 075°32'0 0.0
2018-Feb-16 21:29N 10°24' W 075°32'0 0.0
2018-Feb-16 20:56N 10°24' W 075°32'0 0.0
2018-Feb-16 20:23N 10°24' W 075°32'0 0.0
2018-Feb-16 19:50N 10°24' W 075°32'0 0.0
2018-Feb-16 19:29N 10°24' W 075°32'0 0.0
2018-Feb-16 18:50N 10°24' W 075°32'0 0.0
2018-Feb-16 18:29N 10°24' W 075°32'0 0.0
2018-Feb-16 17:59N 10°24' W 075°32'0 0.0
2018-Feb-16 17:14N 10°24' W 075°32'0 0.0
2018-Feb-16 16:56N 10°24' W 075°32'0 0.0
2018-Feb-16 16:20N 10°24' W 075°32'0 0.0
2018-Feb-16 15:29N 10°24' W 075°32'0 0.0
2018-Feb-16 14:56N 10°24' W 075°32'0 0.0
2018-Feb-16 14:20N 10°24' W 075°32'0 0.0
2018-Feb-16 13:59N 10°24' W 075°32'1 1.7
2018-Feb-16 13:30N 10°24' W 075°32'10 8.7
2018-Feb-16 12:21N 10°18' W 075°41'718.8
2018-Feb-16 11:58N 10°17' W 075°48'918.2
2018-Feb-16 11:29N 10°16' W 075°57'19416.9
2018-Feb-16 00:00N 09°48' W 079°12'4324.3 120 / 251011.7 26.123.426.0
2018-Feb-15 22:14N 09°31' W 079°52'418.3
2018-Feb-15 22:00N 09°28' W 079°55'612.7
2018-Feb-15 21:30N 09°21' W 079°55'3 6.9
2018-Feb-15 21:00N 09°18' W 079°55'1 2.3
2018-Feb-15 20:30N 09°17' W 079°55'0 0.3
2018-Feb-15 20:00N 09°16' W 079°55'0 0.4
2018-Feb-15 19:30N 09°16' W 079°55'0 0.7
2018-Feb-15 19:00N 09°16' W 079°55'2 3.9
2018-Feb-15 18:30N 09°14' W 079°55'  

Dump ship's entire track history